This is the latest recevied weather packets stored in our database for station/object IZ4UFQ-10. If no packets are shown the sender has not sent any weather packets the latest 10 day(s).
| Time | Temp. | Humidity | Pressure | Rain* | Wind** | Luminosity | Snow |
|---|---|---|---|---|---|---|---|
| 1777541362 | 16.11° C | 57% | 1023.9 hPa | 0 mm | - | 844 W/m² | - |
| 1777541061 | 15.56° C | 57% | 1023.9 hPa | 0 mm | - | 860 W/m² | - |
| 1777540761 | 15.56° C | 58% | 1023.9 hPa | 0 mm | - | 830 W/m² | - |
| 1777540461 | 16.11° C | 56% | 1023.9 hPa | 0 mm | - | 151 W/m² | - |
| 1777540160 | 16.11° C | 58% | 1024 hPa | 0 mm | - | 805 W/m² | - |
| 1777539860 | 15.56° C | 59% | 1023.9 hPa | 0 mm | - | 809 W/m² | - |
| 1777539560 | 15.56° C | 59% | 1024 hPa | 0 mm | - | 812 W/m² | - |
| 1777539260 | 15.56° C | 60% | 1023.9 hPa | 0 mm | - | 218 W/m² | - |
| 1777538959 | 15.56° C | 62% | 1023.8 hPa | 0 mm | - | 842 W/m² | - |
| 1777538659 | 15.56° C | 63% | 1023.8 hPa | 0 mm | - | 373 W/m² | - |
| 1777538359 | 15.56° C | 65% | 1023.8 hPa | 0 mm | - | 886 W/m² | - |
| 1777538058 | 15° C | 65% | 1023.7 hPa | 0 mm | - | 751 W/m² | - |
| 1777537758 | 15° C | 65% | 1023.8 hPa | 0 mm | - | 425 W/m² | - |
| 1777537458 | 15° C | 65% | 1023.6 hPa | 0 mm | - | 345 W/m² | - |
| 1777537157 | 15° C | 63% | 1023.6 hPa | 0 mm | - | 257 W/m² | - |
| 1777536857 | 15° C | 64% | 1023.5 hPa | 0 mm | - | 309 W/m² | - |
| 1777536557 | 15° C | 64% | 1023.4 hPa | 0 mm | - | 777 W/m² | - |
| 1777536257 | 15° C | 63% | 1023.3 hPa | 0 mm | - | 735 W/m² | - |
| 1777535956 | 15° C | 64% | 1023.3 hPa | 0 mm | - | 686 W/m² | - |
| 1777535656 | 15° C | 64% | 1023.2 hPa | 0 mm | - | 680 W/m² | - |
| 1777535356 | 15° C | 66% | 1023.1 hPa | 0 mm | - | 677 W/m² | - |
| 1777535055 | 15° C | 67% | 1023.2 hPa | 0 mm | - | 657 W/m² | - |
| 1777534755 | 15° C | 65% | 1023 hPa | 0 mm | - | 650 W/m² | - |
| 1777534455 | 15° C | 67% | 1023 hPa | 0 mm | - | 599 W/m² | - |
| 1777534155 | 15° C | 68% | 1022.9 hPa | 0 mm | - | 540 W/m² | - |
* Rain latest hour (hover to see other rain measurements)
** Current wind speed in m/s (hover to see current wind gust speed)